Weather History for Fort Yukon, AK

Change the Weather History Date:

Wednesday, April 10, 2013

  Actual Average Record
Temperature  
Mean Temperature 9 °F -  
Max Temperature 12 °F 31 °F 48 °F (1997)
Min Temperature 6 °F 9 °F -23 °F (2014)
Degree Days  
Heating Degree Days 56    
Moisture  
Dew Point 3 °F    
Average Humidity 74    
Maximum Humidity 85    
Minimum Humidity 55    
Precipitation  
Precipitation 0.00 in - - ()
Sea Level Pressure  
Sea Level Pressure 29.56 in    
Wind  
Wind Speed 9 mph (WSW)    
Max Wind Speed 15 mph    
Max Gust Speed 23 mph    
Visibility 5 miles    
Events Snow    
Averages and records for this station are not official NWS values.
T = Trace of Precipitation, MM = Missing Value Source: NWS Daily Summary

Daily Weather History Graph

Daily Weather History Graph

Search for Another Location

Airport:

Trip Planner

Search our weather history database for the weather conditions in past years. The results will help you decide how hot, cold, wet, or windy it might be!

Date:

Astronomy

Apr. 10, 2013 Rise Set
Actual Time 6:16 AM AKDT 9:10 PM AKDT
Civil Twilight 5:16 AM AKDT 10:11 PM AKDT
Nautical Twilight 3:46 AM AKDT 11:43 PM AKDT
Astronomical Twilight Sun does not rise Sun does not rise
Moon 6:02 AM AKDT (4/10) 10:29 PM AKDT (4/10)
Length of Visible Light 16h 55m
Length of Day
14h 54m
New Moon, 0% of the Moon is Illuminated
Apr 10
New Moon
Apr 18
First Quarter
Apr 25
Full
May 2
Last Quarter
May 9
New

Hourly Weather History & Observations

Time (AKDT) Temp. Windchill Dew Point Humidity Pressure Visibility Wind Dir Wind Speed Gust Speed Precip Events Conditions
12:16 AM 12.2 °F -0.2 °F 8.6 °F 85% 29.26 in 2.0 mi West 9.2 mph - N/A   Overcast
12:36 AM 12.2 °F 1.7 °F 8.6 °F 85% 29.26 in 2.5 mi West 6.9 mph - N/A   Overcast
12:56 AM 12.2 °F -0.2 °F 8.6 °F 85% 29.27 in 5.0 mi WSW 9.2 mph - N/A   Overcast
1:16 AM 12.2 °F -0.2 °F 8.6 °F 85% 29.28 in 2.5 mi WSW 9.2 mph 16.1 mph N/A   Overcast
1:36 AM 12.2 °F -0.2 °F 8.6 °F 85% 29.29 in 5.0 mi WSW 9.2 mph - N/A   Overcast
1:56 AM 12.2 °F -1.8 °F 8.6 °F 85% 29.31 in 3.0 mi WSW 11.5 mph - N/A   Overcast
2:16 AM 12.2 °F -1.0 °F 6.8 °F 79% 29.32 in 3.0 mi West 10.4 mph - N/A   Overcast
2:36 AM 12.2 °F 1.7 °F 6.8 °F 79% 29.33 in 3.0 mi WSW 6.9 mph 16.1 mph N/A   Overcast
2:56 AM 10.4 °F -3.3 °F 3.2 °F 73% 29.34 in 7.0 mi West 10.4 mph 23.0 mph N/A   Overcast
3:16 AM 10.4 °F -1.5 °F 6.8 °F 85% 29.36 in 2.0 mi WSW 8.1 mph 16.1 mph N/A   Overcast
3:36 AM 10.4 °F -6.0 °F 6.8 °F 85% 29.37 in 1.2 mi WSW 15.0 mph 20.7 mph N/A   Overcast
3:56 AM 10.4 °F -0.4 °F 6.8 °F 85% 29.38 in 1.5 mi WSW 6.9 mph 16.1 mph N/A   Overcast
4:16 AM 8.6 °F -4.7 °F 5.0 °F 85% 29.39 in 2.0 mi WSW 9.2 mph 16.1 mph N/A   Overcast
4:36 AM 8.6 °F -5.5 °F 3.2 °F 79% 29.40 in 5.0 mi WSW 10.4 mph 18.4 mph N/A   Overcast
4:56 AM 8.6 °F -5.5 °F 3.2 °F 79% 29.41 in 10.0 mi WSW 10.4 mph - N/A   Overcast
5:16 AM 8.6 °F -4.7 °F 1.4 °F 73% 29.42 in 10.0 mi WSW 9.2 mph 17.3 mph N/A   Overcast
5:36 AM 8.6 °F -2.6 °F 3.2 °F 79% 29.43 in 2.0 mi WSW 6.9 mph - N/A   Overcast
6:16 AM 8.6 °F -3.7 °F 3.2 °F 79% 29.46 in 1.2 mi WSW 8.1 mph - N/A   Overcast
6:36 AM 8.6 °F -2.6 °F 3.2 °F 79% 29.46 in 1.2 mi SW 6.9 mph - N/A   Overcast
6:56 AM 6.8 °F -3.5 °F 3.2 °F 85% 29.47 in 1.5 mi WSW 5.8 mph - N/A   Overcast
7:16 AM 6.8 °F -3.5 °F 1.4 °F 79% 29.48 in 1.5 mi WSW 5.8 mph - N/A   Overcast
7:36 AM 6.8 °F -5.9 °F 1.4 °F 79% 29.49 in 1.0 mi WSW 8.1 mph - N/A   Overcast
7:56 AM 6.8 °F -9.3 °F 1.4 °F 79% 29.50 in 1.5 mi WSW 12.7 mph 16.1 mph N/A   Overcast
8:04 AM 6.8 °F -8.6 °F 1.4 °F 79% 29.50 in 2.0 mi SW 11.5 mph 17.3 mph N/A Snow Light Snow
8:16 AM 6.8 °F -5.9 °F 1.4 °F 79% 29.51 in 2.5 mi WSW 8.1 mph 16.1 mph N/A   Overcast
8:36 AM 6.8 °F -5.9 °F -0.4 °F 72% 29.51 in 2.0 mi WSW 8.1 mph 16.1 mph N/A   Overcast
8:44 AM 6.8 °F -5.9 °F 1.4 °F 79% 29.52 in 1.5 mi SW 8.1 mph - N/A Snow Light Snow
8:56 AM 6.8 °F -6.9 °F 1.4 °F 79% 29.52 in 1.0 mi WSW 9.2 mph - N/A   Overcast
9:16 AM 6.8 °F -6.9 °F -0.4 °F 72% 29.54 in 1.2 mi WSW 9.2 mph 16.1 mph N/A   Overcast
9:36 AM 6.8 °F -5.9 °F 1.4 °F 79% 29.54 in 1.0 mi WSW 8.1 mph 16.1 mph N/A   Overcast
9:56 AM 6.8 °F -4.8 °F 1.4 °F 79% 29.55 in 1.0 mi WSW 6.9 mph - N/A   Overcast
10:16 AM 6.8 °F -4.8 °F 1.4 °F 79% 29.56 in 1.0 mi SW 6.9 mph 16.1 mph N/A   Overcast
10:36 AM 6.8 °F -5.9 °F 1.4 °F 79% 29.57 in 1.0 mi WSW 8.1 mph 18.4 mph N/A   Overcast
10:56 AM 6.8 °F -5.9 °F 1.4 °F 79% 29.58 in 1.0 mi WSW 8.1 mph - N/A   Overcast
11:16 AM 6.8 °F -6.9 °F 3.2 °F 85% 29.58 in 1.0 mi SW 9.2 mph - N/A   Overcast
11:56 AM 8.6 °F -4.7 °F 1.4 °F 73% 29.60 in 3.0 mi WSW 9.2 mph 18.4 mph N/A   Overcast
12:15 PM 8.6 °F -5.5 °F 1.4 °F 73% 29.60 in 2.0 mi SSW 10.4 mph 18.4 mph N/A Snow Light Snow Showers
12:29 PM 8.6 °F -3.7 °F 1.4 °F 73% 29.61 in 3.0 mi SSW 8.1 mph - N/A Snow Light Snow Showers
12:36 PM 8.6 °F -5.5 °F 1.4 °F 73% 29.61 in 3.0 mi WSW 10.4 mph 17.3 mph N/A   Overcast
12:56 PM 10.4 °F -5.4 °F -0.4 °F 62% 29.61 in 6.0 mi WSW 13.8 mph 20.7 mph N/A   Overcast
1:16 PM 10.4 °F -5.4 °F -0.4 °F 62% 29.62 in 6.0 mi WSW 13.8 mph 19.6 mph N/A   Overcast
1:36 PM 10.4 °F -3.3 °F -0.4 °F 62% 29.63 in 8.0 mi WSW 10.4 mph 16.1 mph N/A   Overcast
1:56 PM 10.4 °F -1.5 °F -0.4 °F 62% 29.64 in 8.0 mi WSW 8.1 mph 19.6 mph N/A   Overcast
2:16 PM 10.4 °F -4.1 °F 1.4 °F 67% 29.65 in 8.0 mi WSW 11.5 mph 17.3 mph N/A   Overcast
2:36 PM 10.4 °F -3.3 °F -0.4 °F 62% 29.66 in 8.0 mi WSW 10.4 mph 18.4 mph N/A   Overcast
2:56 PM 10.4 °F -1.5 °F 1.4 °F 67% 29.66 in 8.0 mi WSW 8.1 mph - N/A   Overcast
3:16 PM 10.4 °F -0.4 °F 1.4 °F 67% 29.67 in 8.0 mi WSW 6.9 mph 19.6 mph N/A   Overcast
3:34 PM 10.4 °F -2.4 °F 1.4 °F 67% 29.67 in 8.0 mi SSW 9.2 mph 16.1 mph N/A Snow Light Snow Showers
3:36 PM 10.4 °F -3.3 °F 1.4 °F 67% 29.67 in 8.0 mi SW 10.4 mph 16.1 mph N/A   Overcast
3:56 PM 10.4 °F -3.3 °F 1.4 °F 67% 29.67 in 5.0 mi SW 10.4 mph - N/A   Overcast
4:12 PM - - - N/A% 29.68 in 5.0 mi SSW 9.2 mph 16.1 mph N/A   Unknown
4:16 PM 10.4 °F -2.4 °F 1.4 °F 67% 29.68 in 5.0 mi WSW 9.2 mph - N/A   Overcast
5:16 PM 10.4 °F -4.8 °F 1.4 °F 67% 29.69 in 7.0 mi WSW 12.7 mph 19.6 mph N/A   Overcast
5:36 PM 10.4 °F -4.1 °F 1.4 °F 67% 29.70 in 9.0 mi WSW 11.5 mph 17.3 mph N/A   Mostly Cloudy
6:36 PM 10.4 °F -4.8 °F 1.4 °F 67% 29.71 in 9.0 mi WSW 12.7 mph 18.4 mph N/A   Overcast
7:36 PM 10.4 °F -3.3 °F 1.4 °F 67% 29.72 in 8.0 mi WSW 10.4 mph 16.1 mph N/A   Overcast
7:56 PM 10.4 °F -0.4 °F 1.4 °F 67% 29.73 in 5.0 mi WSW 6.9 mph - N/A   Overcast
8:16 PM 10.4 °F -2.4 °F 1.4 °F 67% 29.74 in 10.0 mi WSW 9.2 mph - N/A   Mostly Cloudy
8:36 PM 8.6 °F -1.3 °F 1.4 °F 73% 29.74 in 10.0 mi WSW 5.8 mph - N/A   Overcast
8:56 PM 8.6 °F -2.6 °F 1.4 °F 73% 29.74 in 8.0 mi WSW 6.9 mph - N/A   Overcast
9:16 PM 8.6 °F 0.1 °F 1.4 °F 73% 29.75 in 10.0 mi SW 4.6 mph - N/A   Mostly Cloudy
9:36 PM 8.6 °F -2.6 °F 1.4 °F 73% 29.76 in 10.0 mi SW 6.9 mph - N/A   Mostly Cloudy
9:56 PM 8.6 °F -1.3 °F 1.4 °F 73% 29.76 in 7.0 mi WSW 5.8 mph - N/A   Overcast
10:16 PM 8.6 °F -5.5 °F 1.4 °F 73% 29.77 in 10.0 mi WSW 10.4 mph 16.1 mph N/A   Overcast
10:36 PM 8.6 °F -6.3 °F 1.4 °F 73% 29.77 in 5.0 mi WSW 11.5 mph 17.3 mph N/A   Overcast
10:56 PM 8.6 °F -4.7 °F 1.4 °F 73% 29.78 in 6.0 mi WSW 9.2 mph - N/A   Overcast
11:16 PM 8.6 °F -4.7 °F 1.4 °F 73% 29.79 in 9.0 mi WSW 9.2 mph - N/A   Overcast
11:36 PM 8.6 °F -4.7 °F 1.4 °F 73% 29.79 in 10.0 mi WSW 9.2 mph 16.1 mph N/A   Overcast
11:56 PM 8.6 °F -3.7 °F 1.4 °F 73% 29.80 in 10.0 mi WSW 8.1 mph - N/A   Overcast